Regional Weather Roundup
Issued by NWS

Home | Current Version | Previous Version | Text Only | Print | Product List | Glossary On
Versions: 1 2 3 4 5 6 7 8 9 10 11 12 13 14 15 16 17 18 19 20 21 22 23 24 25 26 27 28 29 30 31 32 33 34 35 36 37 38 39 40 41 42 43 44 45 46 47 48 49 50
000
ASUS42 KTBW 181617
RWRFL
FLORIDA REGIONAL WEATHER ROUNDUP
NATIONAL WEATHER SERVICE TAMPA BAY RUSKIN FL
1100 AM EST SAT NOV 18 2017

NOTE: "FAIR" INDICATES FEW OR NO CLOUDS BELOW 12,000 FEET WITH NO
SIGNIFICANT WEATHER AND/OR OBSTRUCTIONS TO VISIBILITY.

FLZ001>010-012>015-112-114-115-181700-
PANHANDLE FLORIDA

CITY           SKY/WX    TMP DP  RH WIND       PRES   REMARKS
PENSACOLA      MOSUNNY   78  63  59 S15       29.97F
PENSACOLA NAS  PTSUNNY   78  65  63 S14       29.97S
CRESTVIEW      PTSUNNY   74  62  66 S8        30.00F
DUKE FIELD     FAIR      74  62  66 S10       29.98F
VALPARAISO     PTSUNNY   75  63  65 S12       29.99S
MARY ESTHER    MOSUNNY   78  65  65 S13       29.97
PANAMA CITY    FAIR      71  56  58 SE15      30.01F
TYNDALL AFB    SUNNY     73  58  59 S13       30.02F
APALACHICOLA   SUNNY     72  63  73 S6        30.04S

STATION/POSITION SKY/WX   TEMP    WIND        PRES    WAVE   SWELL
                          AIR SEA DIR/SP/G            HT/PER HT/PER
                          (F)     (DEG/KT/KT) (MB)    (FT/S) (FT/S)
29.2N   88.2W              77 78  190/ 16/ 17 1015.6
28.8N   86.0W              73 77  190/  8/ 12 1016.6    1
PANAMA CITY BEAC NOT AVBL
TOWER C                    70     190/  8/  9 1017.6F
28.5N   84.5W              72 76  180/  6/  8 1017.0S   0

$$
FLZ011-016>038-118-127-128-134-139-239-181700-
NORTH FLORIDA

CITY           SKY/WX    TMP DP  RH WIND       PRES   REMARKS
MARIANNA       SUNNY     71  53  52 S13       30.01F
TALLAHASSEE    MOSUNNY   64  58  80 VRB3      30.04F
PERRY          SUNNY     72  60  67 S6        30.05F
LIVE OAK       SUNNY     73  57  56 VRB6G12   30.05F
CROSS CITY     SUNNY     72  57  59 S9        30.09F
LAKE CITY      FAIR      72  55  56 SW10      30.05F
GAINESVILLE    SUNNY     73  56  54 S9        30.07F
WILLISTON      SUNNY     77  59  53 VRB7      30.05F
PALATKA        FAIR      73  59  60 S7        30.05F
MAYPORT NAS    SUNNY     73  57  57 W6        30.04F
JACKSONVILLE   MOSUNNY   75  57  53 SW8       30.03F
JAX NAS        MOSUNNY   72  56  57 S6        30.04F
JAX CECIL      SUNNY     73  61  64 SW9       30.04F
ST AUGUSTINE   SUNNY     73  59  61 VRB5      30.05F
PALM COAST     SUNNY     73  57  56 S5        30.05F

STATION/POSITION SKY/WX   TEMP    WIND        PRES    WAVE   SWELL
                          AIR SEA DIR/SP/G            HT/PER HT/PER
                          (F)     (DEG/KT/KT) (MB)    (FT/S) (FT/S)
SHELL POINT      NOT AVBL
KEATON BEACH               63     190/  6/  7 1017.4S
CEDAR KEY                  64     130/  3/  4 1018.0F
FERNANDINA       NOT AVBL
30.7N   81.3W                 68                N/A     3/13   2/13
MAYPORT          NOT AVBL
31.4N   80.9W              70 69  210/  6/  6 1016.9F   3/11   2/11
ST AUGUSTINE               67 68   40/  3/  3 1017.6F

$$
FLZ040-043>046-052-053-057-058-063-144-181700-
INTERIOR CENTRAL FLORIDA

CITY           SKY/WX    TMP DP  RH WIND       PRES   REMARKS
OCALA          SUNNY     75  57  53 VRB5      30.05F
THE VILLAGES     N/A     75  61  60 CALM      29.95F
LEESBURG       SUNNY     74  59  59 SE6       30.05F
SANFORD        SUNNY     75  55  49 VRB6      30.05F
ORLANDO EXEC   SUNNY     77  58  51 SE9       30.04F
ORLANDO INTL   MOSUNNY   76  58  53 SE5       30.04F
KISSIMMEE      SUNNY     76  56  49 SE10      30.05F
WINTER HAVEN   SUNNY     76  54  46 SE5       30.06F
LAKELAND       SUNNY     75  55  50 S7        30.05F
SEBRING        FAIR      78  54  43 SE5       30.05S
OKEECHOBEE     SUNNY     77  55  47 E3        30.04F

$$
FLZ041-047-054-059-064-141-147-181700-
EAST CENTRAL FLORIDA

CITY           SKY/WX    TMP DP  RH WIND       PRES   REMARKS
ORMOND BEACH   SUNNY     73  57  56 SW5       30.05F
DAYTONA BEACH  MOSUNNY   75  59  57 SW6       30.05F
DELAND         SUNNY     75  55  50 SE9       30.04F
NEW SMYRNA BEA SUNNY     75  57  53 SE5       30.06F
JFK SPACE CTR  SUNNY     75  64  67 CALM      30.04S
TITUSVILLE     SUNNY     77  57  50 CALM      30.06S
CAPE CANAVERAL SUNNY     76  60  57 CALM      30.03F
PATRICK AFB    SUNNY     75  60  58 NW5       30.04S
MELBOURNE      SUNNY     78  58  49 CALM      30.04F
VERO BEACH     SUNNY     77  58  51 VRB5      30.04F
FT PIERCE      MOSUNNY   78  58  49 SW7       30.03F
STUART         MOSUNNY   81  59  47 SE6       30.04F

STATION/POSITION SKY/WX   TEMP    WIND        PRES    WAVE   SWELL
                          AIR SEA DIR/SP/G            HT/PER HT/PER
                          (F)     (DEG/KT/KT) (MB)    (FT/S) (FT/S)
28.5N   80.2W              76 78  170/  8/ 12 1017.1
TRIDENT PIER     NOT AVBL
27.5N   80.2W                 75                N/A     4/13   2/13

$$
FLZ050-056-061-142-242-148-248-149-249-151-251-155-255-
160-260-181700-
WEST CENTRAL FLORIDA

CITY           SKY/WX    TMP DP  RH WIND       PRES   REMARKS
CRYSTAL RIVER  FAIR      73  55  53 S3        30.05F
INVERNESS      FAIR      75  59  57 SE6       30.05F HAZE
BROOKSVILLE    SUNNY     76  55  48 S8        30.05F
CLEARWATER AIR FAIR      73  57  56 SE7       30.04F
ST PETE CLEARW SUNNY     76  57  51 SE8       30.04F
TAMPA INTL     MOSUNNY   76  57  51 S8        30.05F
TAMPA EXEC     SUNNY     77  55  47 S3        30.05F
PLANT CITY     SUNNY     77  54  44 S5        30.07F
PETER O KNIGHT   N/A     73  61  64 S3        30.05F
ST PETERSBURG  SUNNY     72  60  66 SE3       30.03F
SARASOTA       SUNNY     76  58  53 SE8       30.03F
VENICE         FAIR      77  59  53 SE6G12    30.04F

STATION/POSITION SKY/WX   TEMP    WIND        PRES    WAVE   SWELL
                          AIR SEA DIR/SP/G            HT/PER HT/PER
                          (F)     (DEG/KT/KT) (MB)    (FT/S) (FT/S)
CLEARWATER BEACH NOT AVBL
MIDDLE TAMPA BAY NOT AVBL
VENICE                     75 72  100/  5/  7 1017.2F

$$
FLZ066-069-070-075>078-162-262-165-265-181700-
SOUTHWEST FLORIDA AND KEYS

CITY           SKY/WX    TMP DP  RH WIND       PRES   REMARKS
PUNTA GORDA    SUNNY     78  55  44 E9        30.05F
FT MYERS       SUNNY     78  58  49 E7        30.03F
SOUTHWEST INTL SUNNY     77  58  51 VRB6      30.03F
NAPLES         SUNNY     78  59  51 NE8       30.03F
MARCO ISLAND   SUNNY     77  60  55 E9        30.04F
IMMOKALEE      FAIR      79  59  50 VRB7      30.04F
MARATHON       MOSUNNY   78  64  61 NE12      30.01S
KEY WEST NAS   MOSUNNY   78  68  71 NE13      30.01F
KEY WEST INTL  SUNNY     78  64  61 NE9       30.02

STATION/POSITION SKY/WX   TEMP    WIND        PRES    WAVE   SWELL
                          AIR SEA DIR/SP/G            HT/PER HT/PER
                          (F)     (DEG/KT/KT) (MB)    (FT/S) (FT/S)
NAPLES           NOT AVBL
DRY TORTUGAS               76      80/ 12/ 13 1016.5F
SAND KEY                   75                 1016.9F
MOLASSES REEF              77 80   70/  9/ 11 1016.3F

$$
FLZ067-068-071>074-168-172>174-181700-
SOUTHEAST FLORIDA

CITY           SKY/WX    TMP DP  RH WIND       PRES   REMARKS
W PALM BEACH   MOSUNNY   79  63  57 SE7       30.03F
BOCA RATON     MOSUNNY   79  61  53 E12       30.03F
FT LAUDER-EXEC MOSUNNY   79  62  56 E9G17     30.02F
FT LAUDERDALE  MOSUNNY   79  65  62 NE8       30.01F
POMPANO BEACH  SUNNY     80  65  59 E10       30.03S
PEMBROKE PINES MOSUNNY   82  62  50 E8        30.03F
OPA LOCKA      MOSUNNY   80  64  58 NE8       30.02F
MIAMI          MOSUNNY   81  63  54 NE8       30.02F
WEST KENDALL   SUNNY     80  62  54 NE10      30.02F
HOMESTEAD      SUNNY     79  66  63 NE14      30.00F

STATION/POSITION SKY/WX   TEMP    WIND        PRES    WAVE   SWELL
                          AIR SEA DIR/SP/G            HT/PER HT/PER
                          (F)     (DEG/KT/KT) (MB)    (FT/S) (FT/S)
PORT EVERGLADES            77      60/  8/ 11 1016.7F
FOWEY ROCKS                77 78   40/ 13/ 14 1016.8F
SETTLEMENT POINT           75      60/ 11/ 12 1017.1F

$$




USA.gov is the U.S. government's official web portal to all federal, state and local government web resources and services.